Time,TemperatureF,DewpointF,PressureIn,WindDirection,WindDirectionDegrees,WindSpeedMPH,WindSpeedGustMPH,Humidity,HourlyPrecipIn,Conditions,Clouds,dailyrainin,SoftwareType,DateUTC
2013-02-27 00:00:00,34.9,33.3,-100.00,NNW,346,5.0,14.0,94,0.18,,,0.84,meteohub,2013-02-27 05:00:00,
2013-02-27 00:05:00,34.9,33.3,-100.00,ENE,72,3.0,12.0,94,0.15,,,0.00,meteohub,2013-02-27 05:05:00,
2013-02-27 00:10:00,35.1,33.4,-100.00,East,98,5.0,12.0,94,0.13,,,0.01,meteohub,2013-02-27 05:10:00,
2013-02-27 00:15:00,34.9,33.3,-100.00,NNE,25,1.0,12.0,94,0.12,,,0.02,meteohub,2013-02-27 05:15:00,
2013-02-27 00:20:00,35.1,33.4,-100.00,NE,53,3.0,12.0,94,0.11,,,0.02,meteohub,2013-02-27 05:20:00,
2013-02-27 00:26:00,35.1,33.4,-100.00,ENE,65,4.0,12.0,94,0.09,,,0.03,meteohub,2013-02-27 05:26:00,
2013-02-27 00:30:00,35.2,33.6,-100.00,ENE,66,4.0,13.0,94,0.09,,,0.04,meteohub,2013-02-27 05:30:00,
2013-02-27 00:35:00,35.2,33.4,-100.00,ENE,60,8.0,13.0,93,0.08,,,0.04,meteohub,2013-02-27 05:35:00,
2013-02-27 00:40:00,35.2,33.4,-100.00,ENE,68,6.0,15.0,93,0.09,,,0.06,meteohub,2013-02-27 05:40:00,
2013-02-27 00:45:00,35.2,33.4,-100.00,NW,320,2.0,15.0,93,0.09,,,0.07,meteohub,2013-02-27 05:45:00,
2013-02-27 00:50:00,35.2,33.4,-100.00,NE,56,4.0,12.0,93,0.08,,,0.07,meteohub,2013-02-27 05:50:00,
2013-02-27 00:55:00,35.4,33.6,-100.00,SE,138,2.0,15.0,93,0.09,,,0.08,meteohub,2013-02-27 05:55:00,
2013-02-27 01:01:00,35.2,33.4,-100.00,East,86,2.0,15.0,93,0.08,,,0.08,meteohub,2013-02-27 06:01:00,
2013-02-27 01:06:00,35.2,33.4,-100.00,NE,34,5.0,13.0,93,0.07,,,0.08,meteohub,2013-02-27 06:06:00,
2013-02-27 01:11:00,35.2,33.4,-100.00,East,97,3.0,11.0,93,0.07,,,0.08,meteohub,2013-02-27 06:11:00,
2013-02-27 01:16:00,35.2,33.4,-100.00,East,101,1.0,10.0,93,0.06,,,0.08,meteohub,2013-02-27 06:16:00,
2013-02-27 01:21:00,35.2,33.4,-100.00,ESE,108,1.0,14.0,93,0.07,,,0.09,meteohub,2013-02-27 06:21:00,
2013-02-27 01:26:00,35.2,33.4,-100.00,NNW,328,2.0,14.0,93,0.06,,,0.09,meteohub,2013-02-27 06:26:00,
2013-02-27 01:31:00,35.2,33.4,-100.00,NE,41,5.0,14.0,93,0.05,,,0.09,meteohub,2013-02-27 06:31:00,
2013-02-27 01:36:00,35.2,33.4,-100.00,NE,52,3.0,10.0,93,0.04,,,0.09,meteohub,2013-02-27 06:36:00,
2013-02-27 01:41:00,35.2,33.4,-100.00,East,82,2.0,9.0,93,0.03,,,0.09,meteohub,2013-02-27 06:41:00,
2013-02-27 01:46:00,35.1,33.3,-100.00,ENE,77,9.0,9.0,93,0.02,,,0.09,meteohub,2013-02-27 06:46:00,
2013-02-27 01:51:00,35.1,33.3,-100.00,NE,49,7.0,12.0,93,0.01,,,0.09,meteohub,2013-02-27 06:51:00,
2013-02-27 01:56:00,35.1,33.3,-100.00,NE,44,6.0,12.0,93,0.02,,,0.10,meteohub,2013-02-27 06:56:00,
2013-02-27 02:01:00,35.1,33.3,-100.00,NW,318,0.0,12.0,93,0.02,,,0.10,meteohub,2013-02-27 07:01:00,
2013-02-27 02:06:00,35.1,33.3,-100.00,ENE,75,6.0,11.0,93,0.02,,,0.10,meteohub,2013-02-27 07:06:00,
2013-02-27 02:11:00,35.1,33.3,-100.00,NNE,30,2.0,11.0,93,0.02,,,0.10,meteohub,2013-02-27 07:11:00,
2013-02-27 02:16:00,35.1,33.3,-100.00,ENE,70,1.0,9.0,93,0.02,,,0.10,meteohub,2013-02-27 07:16:00,
2013-02-27 02:21:00,35.1,33.3,-100.00,ESE,116,3.0,9.0,93,0.01,,,0.10,meteohub,2013-02-27 07:21:00,
2013-02-27 02:26:00,35.1,33.3,-100.00,East,96,2.0,9.0,93,0.01,,,0.10,meteohub,2013-02-27 07:26:00,
2013-02-27 02:31:00,35.1,33.3,-100.00,NE,50,5.0,7.0,93,0.01,,,0.10,meteohub,2013-02-27 07:31:00,
2013-02-27 02:36:00,34.9,33.1,-100.00,ENE,73,3.0,6.0,93,0.01,,,0.10,meteohub,2013-02-27 07:36:00,
2013-02-27 02:41:00,34.9,33.1,-100.00,ENE,65,5.0,9.0,93,0.01,,,0.10,meteohub,2013-02-27 07:41:00,
2013-02-27 02:46:00,34.9,33.1,-100.00,NNE,33,1.0,9.0,93,0.01,,,0.10,meteohub,2013-02-27 07:46:00,
2013-02-27 02:51:00,34.9,33.1,-100.00,NE,47,6.0,9.0,93,0.02,,,0.11,meteohub,2013-02-27 07:51:00,
2013-02-27 02:56:00,34.9,33.1,-100.00,NE,50,6.0,7.0,93,0.01,,,0.11,meteohub,2013-02-27 07:56:00,
2013-02-27 03:01:00,34.7,32.9,-100.00,ENE,67,3.0,7.0,93,0.01,,,0.11,meteohub,2013-02-27 08:01:00,
2013-02-27 03:06:00,34.5,32.7,-100.00,ENE,58,1.0,8.0,93,0.01,,,0.11,meteohub,2013-02-27 08:06:00,
2013-02-27 03:11:00,34.5,32.9,-100.00,NNW,343,2.0,8.0,94,0.01,,,0.11,meteohub,2013-02-27 08:11:00,
2013-02-27 03:16:00,34.5,32.9,-100.00,North,359,3.0,6.0,94,0.01,,,0.11,meteohub,2013-02-27 08:16:00,
2013-02-27 03:21:00,34.5,32.9,-100.00,ENE,65,3.0,11.0,94,0.02,,,0.12,meteohub,2013-02-27 08:21:00,
2013-02-27 03:26:00,34.5,32.9,-100.00,NNW,338,1.0,11.0,94,0.02,,,0.12,meteohub,2013-02-27 08:26:00,
2013-02-27 03:31:00,34.5,32.9,-100.00,NNE,30,3.0,10.0,94,0.02,,,0.12,meteohub,2013-02-27 08:31:00,
2013-02-27 03:37:00,34.3,32.7,-100.00,ENE,60,2.0,9.0,94,0.02,,,0.12,meteohub,2013-02-27 08:37:00,
2013-02-27 03:42:00,34.3,32.7,-100.00,North,358,0.0,9.0,94,0.02,,,0.12,meteohub,2013-02-27 08:42:00,
2013-02-27 03:47:00,34.3,32.7,-100.00,NE,35,3.0,9.0,94,0.02,,,0.12,meteohub,2013-02-27 08:47:00,
2013-02-27 03:52:00,34.3,32.7,-100.00,NNW,347,2.0,5.0,94,0.01,,,0.12,meteohub,2013-02-27 08:52:00,
2013-02-27 03:56:00,34.3,32.7,-100.00,East,79,6.0,7.0,94,0.01,,,0.12,meteohub,2013-02-27 08:56:00,
2013-02-27 04:01:00,34.5,32.9,-100.00,ENE,62,1.0,7.0,94,0.01,,,0.12,meteohub,2013-02-27 09:01:00,
2013-02-27 04:07:00,34.3,32.7,-100.00,North,2,1.0,7.0,94,0.01,,,0.12,meteohub,2013-02-27 09:07:00,
2013-02-27 04:12:00,34.3,32.7,-100.00,North,0,1.0,7.0,94,0.01,,,0.12,meteohub,2013-02-27 09:12:00,
2013-02-27 04:17:00,34.3,32.7,-100.00,NE,44,5.0,7.0,94,0.01,,,0.12,meteohub,2013-02-27 09:17:00,
2013-02-27 04:22:00,34.3,32.7,-100.00,ENE,66,2.0,8.0,94,0.00,,,0.12,meteohub,2013-02-27 09:22:00,
2013-02-27 04:27:00,34.3,32.7,-100.00,NE,56,2.0,8.0,94,0.00,,,0.12,meteohub,2013-02-27 09:27:00,
2013-02-27 04:32:00,34.3,32.7,-100.00,NNE,30,4.0,8.0,94,0.01,,,0.13,meteohub,2013-02-27 09:32:00,
2013-02-27 04:37:00,34.3,32.7,-100.00,NNE,18,6.0,8.0,94,0.01,,,0.13,meteohub,2013-02-27 09:37:00,
2013-02-27 04:42:00,34.3,32.7,-100.00,North,356,2.0,10.0,94,0.01,,,0.13,meteohub,2013-02-27 09:42:00,
2013-02-27 04:47:00,34.2,32.5,-100.00,NE,46,2.0,10.0,94,0.01,,,0.13,meteohub,2013-02-27 09:47:00,
2013-02-27 04:52:00,34.2,32.5,-100.00,ENE,60,1.0,10.0,94,0.01,,,0.13,meteohub,2013-02-27 09:52:00,
2013-02-27 04:57:00,34.2,32.5,-100.00,NE,37,2.0,10.0,94,0.01,,,0.13,meteohub,2013-02-27 09:57:00,
2013-02-27 05:02:00,34.2,32.5,-100.00,ENE,59,5.0,10.0,94,0.01,,,0.13,meteohub,2013-02-27 10:02:00,
2013-02-27 05:07:00,34.2,32.5,-100.00,NE,36,2.0,10.0,94,0.01,,,0.13,meteohub,2013-02-27 10:07:00,
2013-02-27 05:12:00,34.2,32.5,-100.00,NE,53,5.0,8.0,94,0.01,,,0.13,meteohub,2013-02-27 10:12:00,
2013-02-27 05:17:00,34.2,32.5,-100.00,ENE,68,4.0,8.0,94,0.01,,,0.13,meteohub,2013-02-27 10:17:00,
2013-02-27 05:22:00,34.3,32.7,-100.00,ENE,67,5.0,9.0,94,0.01,,,0.13,meteohub,2013-02-27 10:22:00,
2013-02-27 05:27:00,34.3,32.7,-100.00,NNW,332,2.0,9.0,94,0.00,,,0.13,meteohub,2013-02-27 10:27:00,
2013-02-27 05:32:00,34.3,32.7,-100.00,NNE,25,1.0,11.0,94,0.00,,,0.13,meteohub,2013-02-27 10:32:00,
2013-02-27 05:37:00,34.3,32.7,-100.00,NNE,32,4.0,11.0,94,0.00,,,0.13,meteohub,2013-02-27 10:37:00,
2013-02-27 05:42:00,34.3,32.7,-100.00,NE,40,3.0,8.0,94,0.00,,,0.13,meteohub,2013-02-27 10:42:00,
2013-02-27 05:47:00,34.3,32.7,-100.00,NE,43,2.0,8.0,94,0.00,,,0.13,meteohub,2013-02-27 10:47:00,
2013-02-27 05:52:00,34.3,32.7,-100.00,North,354,4.0,8.0,94,0.00,,,0.13,meteohub,2013-02-27 10:52:00,
2013-02-27 05:57:00,34.3,32.7,-100.00,North,6,1.0,7.0,94,0.00,,,0.13,meteohub,2013-02-27 10:57:00,
2013-02-27 06:03:00,34.3,32.7,-100.00,East,84,0.0,7.0,94,0.00,,,0.13,meteohub,2013-02-27 11:03:00,
2013-02-27 06:08:00,34.3,32.7,-100.00,WNW,297,0.0,7.0,94,0.01,,,0.14,meteohub,2013-02-27 11:08:00,
2013-02-27 06:13:00,34.2,32.5,-100.00,NE,41,1.0,7.0,94,0.01,,,0.14,meteohub,2013-02-27 11:13:00,
2013-02-27 06:18:00,34.2,32.5,-100.00,NW,316,1.0,6.0,94,0.01,,,0.14,meteohub,2013-02-27 11:18:00,
2013-02-27 06:23:00,34.2,32.5,-100.00,NNE,20,1.0,6.0,94,0.01,,,0.14,meteohub,2013-02-27 11:23:00,
2013-02-27 06:28:00,34.2,32.5,-100.00,ENE,61,4.0,5.0,94,0.01,,,0.14,meteohub,2013-02-27 11:28:00,
2013-02-27 06:33:00,34.2,32.5,-100.00,ENE,71,0.0,6.0,94,0.01,,,0.14,meteohub,2013-02-27 11:33:00,
2013-02-27 06:38:00,34.0,32.4,-100.00,ENE,65,1.0,6.0,94,0.01,,,0.14,meteohub,2013-02-27 11:38:00,
2013-02-27 06:43:00,34.0,32.4,-100.00,NE,46,2.0,6.0,94,0.01,,,0.14,meteohub,2013-02-27 11:43:00,
2013-02-27 06:48:00,34.0,32.7,-100.00,East,81,2.0,5.0,95,0.02,,,0.15,meteohub,2013-02-27 11:48:00,
2013-02-27 06:53:00,34.0,32.7,-100.00,ENE,65,1.0,4.0,95,0.02,,,0.15,meteohub,2013-02-27 11:53:00,
2013-02-27 06:58:00,33.8,32.5,-100.00,ESE,110,0.0,5.0,95,0.02,,,0.15,meteohub,2013-02-27 11:58:00,
2013-02-27 07:03:00,34.0,32.7,-100.00,North,11,0.0,7.0,95,0.02,,,0.15,meteohub,2013-02-27 12:03:00,
2013-02-27 07:08:00,34.0,32.7,-100.00,NNE,29,0.0,7.0,95,0.01,,,0.15,meteohub,2013-02-27 12:08:00,
2013-02-27 07:13:00,34.0,32.7,-100.00,NNE,28,3.0,7.0,95,0.01,,,0.15,meteohub,2013-02-27 12:13:00,
2013-02-27 07:18:00,34.0,32.7,-100.00,NNE,28,1.0,7.0,95,0.01,,,0.15,meteohub,2013-02-27 12:18:00,
2013-02-27 07:23:00,34.0,32.7,-100.00,NE,53,2.0,7.0,95,0.01,,,0.15,meteohub,2013-02-27 12:23:00,
2013-02-27 07:28:00,34.0,32.7,-100.00,NE,34,0.0,7.0,95,0.01,,,0.15,meteohub,2013-02-27 12:28:00,
2013-02-27 07:33:00,34.0,32.7,-100.00,East,97,2.0,6.0,95,0.01,,,0.15,meteohub,2013-02-27 12:33:00,
2013-02-27 07:38:00,34.0,32.7,-100.00,ENE,65,0.0,5.0,95,0.01,,,0.15,meteohub,2013-02-27 12:38:00,
2013-02-27 07:43:00,33.8,32.5,-100.00,NE,51,1.0,4.0,95,0.00,,,0.15,meteohub,2013-02-27 12:43:00,
2013-02-27 07:48:00,34.0,32.7,-100.00,NE,56,2.0,5.0,95,0.00,,,0.16,meteohub,2013-02-27 12:48:00,
2013-02-27 07:53:00,33.8,32.5,-100.00,NNE,13,3.0,5.0,95,0.01,,,0.16,meteohub,2013-02-27 12:53:00,
2013-02-27 07:58:00,33.6,32.4,-100.00,NE,51,2.0,5.0,95,0.01,,,0.16,meteohub,2013-02-27 12:58:00,
2013-02-27 08:04:00,33.6,32.4,-100.00,NNE,27,4.0,5.0,95,0.01,,,0.16,meteohub,2013-02-27 13:04:00,
2013-02-27 08:09:00,33.6,32.4,-100.00,NNE,32,0.0,5.0,95,0.01,,,0.16,meteohub,2013-02-27 13:09:00,
2013-02-27 08:14:00,33.6,32.4,-100.00,ENE,63,1.0,5.0,95,0.02,,,0.17,meteohub,2013-02-27 13:14:00,
2013-02-27 08:19:00,33.6,32.4,-100.00,East,97,2.0,5.0,95,0.02,,,0.17,meteohub,2013-02-27 13:19:00,
2013-02-27 08:24:00,33.6,32.4,-100.00,NNE,25,2.0,4.0,95,0.02,,,0.17,meteohub,2013-02-27 13:24:00,
2013-02-27 08:29:00,33.6,32.4,-100.00,SSE,160,0.0,4.0,95,0.02,,,0.17,meteohub,2013-02-27 13:29:00,
2013-02-27 08:34:00,33.6,32.5,-100.00,NNE,28,0.0,4.0,96,0.02,,,0.17,meteohub,2013-02-27 13:34:00,
2013-02-27 08:39:00,33.6,32.5,-100.00,NNE,26,4.0,5.0,96,0.02,,,0.17,meteohub,2013-02-27 13:39:00,
2013-02-27 08:44:00,33.6,32.4,-100.00,ENE,70,1.0,5.0,95,0.01,,,0.17,meteohub,2013-02-27 13:44:00,
2013-02-27 08:49:00,33.6,32.4,-100.00,NE,34,2.0,5.0,95,0.02,,,0.18,meteohub,2013-02-27 13:49:00,
2013-02-27 08:54:00,33.6,32.4,-100.00,North,352,2.0,4.0,95,0.02,,,0.18,meteohub,2013-02-27 13:54:00,
2013-02-27 08:59:00,33.4,32.2,-100.00,NE,36,1.0,4.0,95,0.02,,,0.18,meteohub,2013-02-27 13:59:00,
2013-02-27 09:04:00,33.4,32.2,-100.00,NW,326,0.0,4.0,95,0.02,,,0.18,meteohub,2013-02-27 14:04:00,
2013-02-27 09:09:00,33.3,32.0,-100.00,NE,50,1.0,4.0,95,0.02,,,0.18,meteohub,2013-02-27 14:09:00,
2013-02-27 09:14:00,33.3,32.0,-100.00,NE,46,0.0,4.0,95,0.01,,,0.18,meteohub,2013-02-27 14:14:00,
2013-02-27 09:19:00,33.3,32.2,-100.00,NNE,13,1.0,5.0,96,0.01,,,0.18,meteohub,2013-02-27 14:19:00,
2013-02-27 09:24:00,33.3,32.2,-100.00,ENE,65,1.0,5.0,96,0.01,,,0.18,meteohub,2013-02-27 14:24:00,
2013-02-27 09:29:00,33.3,32.2,-100.00,ENE,63,1.0,4.0,96,0.01,,,0.18,meteohub,2013-02-27 14:29:00,
2013-02-27 09:34:00,33.3,32.2,-100.00,East,84,4.0,4.0,96,0.01,,,0.18,meteohub,2013-02-27 14:34:00,
2013-02-27 09:39:00,33.3,32.2,-100.00,NNW,343,2.0,5.0,96,0.01,,,0.18,meteohub,2013-02-27 14:39:00,
2013-02-27 09:44:00,33.4,32.4,-100.00,North,3,1.0,7.0,96,0.00,,,0.18,meteohub,2013-02-27 14:44:00,
2013-02-27 09:49:00,33.4,32.4,-100.00,East,95,0.0,7.0,96,0.01,,,0.19,meteohub,2013-02-27 14:49:00,
2013-02-27 09:54:00,33.4,32.4,-100.00,ENE,68,1.0,7.0,96,0.01,,,0.19,meteohub,2013-02-27 14:54:00,
2013-02-27 09:59:00,33.6,32.5,-100.00,North,8,1.0,7.0,96,0.01,,,0.19,meteohub,2013-02-27 14:59:00,
2013-02-27 10:04:00,33.6,32.5,-100.00,NE,38,2.0,4.0,96,0.01,,,0.19,meteohub,2013-02-27 15:04:00,
2013-02-27 10:09:00,33.6,32.5,-100.00,NE,40,4.0,5.0,96,0.02,,,0.20,meteohub,2013-02-27 15:09:00,
2013-02-27 10:14:00,33.6,32.5,-100.00,NE,34,2.0,5.0,96,0.02,,,0.20,meteohub,2013-02-27 15:14:00,
2013-02-27 10:19:00,33.6,32.5,-100.00,NNE,13,3.0,8.0,96,0.02,,,0.20,meteohub,2013-02-27 15:19:00,
2013-02-27 10:24:00,33.6,32.4,-100.00,NE,34,0.0,8.0,95,0.02,,,0.20,meteohub,2013-02-27 15:24:00,
2013-02-27 10:29:00,33.6,32.4,-100.00,North,354,1.0,8.0,95,0.02,,,0.20,meteohub,2013-02-27 15:29:00,
2013-02-27 10:34:00,33.6,32.4,-100.00,ENE,58,1.0,5.0,95,0.03,,,0.21,meteohub,2013-02-27 15:34:00,
2013-02-27 10:39:00,33.6,32.4,-100.00,ENE,61,0.0,5.0,95,0.03,,,0.21,meteohub,2013-02-27 15:39:00,
2013-02-27 10:44:00,33.8,32.5,-100.00,NNE,28,0.0,5.0,95,0.03,,,0.21,meteohub,2013-02-27 15:44:00,
2013-02-27 10:50:00,34.0,32.7,-100.00,ENE,58,1.0,5.0,95,0.03,,,0.22,meteohub,2013-02-27 15:50:00,
2013-02-27 10:55:00,34.0,32.7,-100.00,East,92,0.0,5.0,95,0.03,,,0.22,meteohub,2013-02-27 15:55:00,
2013-02-27 11:00:00,34.0,32.7,-100.00,ENE,78,1.0,4.0,95,0.03,,,0.22,meteohub,2013-02-27 16:00:00,
2013-02-27 11:05:00,34.0,32.7,-100.00,ENE,73,2.0,7.0,95,0.03,,,0.23,meteohub,2013-02-27 16:05:00,
2013-02-27 11:10:00,34.2,32.9,-100.00,NE,51,1.0,7.0,95,0.03,,,0.23,meteohub,2013-02-27 16:10:00,
2013-02-27 11:15:00,34.2,32.9,-100.00,NE,43,0.0,7.0,95,0.03,,,0.23,meteohub,2013-02-27 16:15:00,
2013-02-27 11:20:00,34.3,33.1,-100.00,NE,36,0.0,6.0,95,0.04,,,0.24,meteohub,2013-02-27 16:20:00,
2013-02-27 11:25:00,34.5,33.3,-100.00,ESE,110,2.0,4.0,95,0.05,,,0.25,meteohub,2013-02-27 16:25:00,
2013-02-27 11:30:00,34.5,33.3,-100.00,ESE,114,1.0,4.0,95,0.04,,,0.25,meteohub,2013-02-27 16:30:00,
2013-02-27 11:35:00,34.9,33.6,-100.00,East,86,1.0,5.0,95,0.05,,,0.26,meteohub,2013-02-27 16:35:00,
2013-02-27 11:40:00,35.1,34.0,-100.00,ENE,76,0.0,5.0,96,0.05,,,0.26,meteohub,2013-02-27 16:40:00,
2013-02-27 11:45:00,35.2,34.0,-100.00,NE,53,0.0,3.0,95,0.06,,,0.27,meteohub,2013-02-27 16:45:00,
2013-02-27 11:50:00,35.4,34.2,-100.00,ESE,106,0.0,4.0,95,0.05,,,0.27,meteohub,2013-02-27 16:50:00,
2013-02-27 11:55:00,35.8,34.5,-100.00,ENE,75,2.0,4.0,95,0.05,,,0.27,meteohub,2013-02-27 16:55:00,
2013-02-27 12:00:00,35.8,34.5,-100.00,ENE,68,0.0,4.0,95,0.05,,,0.28,meteohub,2013-02-27 17:00:00,
2013-02-27 12:05:00,36.0,34.7,-100.00,NNE,27,4.0,5.0,95,0.05,,,0.28,meteohub,2013-02-27 17:05:00,
2013-02-27 12:10:00,36.0,34.7,-100.00,ENE,59,1.0,5.0,95,0.05,,,0.28,meteohub,2013-02-27 17:10:00,
2013-02-27 12:15:00,36.0,34.3,-100.00,ENE,77,2.0,5.0,94,0.04,,,0.28,meteohub,2013-02-27 17:15:00,
2013-02-27 12:20:00,36.0,34.7,-100.00,East,79,0.0,5.0,95,0.05,,,0.29,meteohub,2013-02-27 17:20:00,
2013-02-27 12:25:00,36.0,34.7,-100.00,ENE,76,2.0,4.0,95,0.04,,,0.29,meteohub,2013-02-27 17:25:00,
2013-02-27 12:30:00,36.0,34.7,-100.00,ENE,63,1.0,4.0,95,0.04,,,0.29,meteohub,2013-02-27 17:30:00,
2013-02-27 12:35:00,36.1,34.9,-100.00,East,82,4.0,4.0,95,0.03,,,0.29,meteohub,2013-02-27 17:35:00,
2013-02-27 12:40:00,36.0,34.3,-100.00,ENE,63,2.0,4.0,94,0.03,,,0.29,meteohub,2013-02-27 17:40:00,
2013-02-27 12:45:00,36.0,34.3,-100.00,NE,41,2.0,4.0,94,0.02,,,0.29,meteohub,2013-02-27 17:45:00,
2013-02-27 12:50:00,36.0,34.3,-100.00,East,95,0.0,4.0,94,0.02,,,0.29,meteohub,2013-02-27 17:50:00,
2013-02-27 12:55:00,36.0,34.3,-100.00,East,99,1.0,4.0,94,0.02,,,0.30,meteohub,2013-02-27 17:55:00,
2013-02-27 13:00:00,36.0,34.7,-100.00,East,94,0.0,4.0,95,0.02,,,0.30,meteohub,2013-02-27 18:00:00,
2013-02-27 13:05:00,36.0,34.7,-100.00,ENE,77,0.0,4.0,95,0.02,,,0.30,meteohub,2013-02-27 18:05:00,
2013-02-27 13:10:00,36.0,34.7,-100.00,ENE,69,0.0,2.0,95,0.02,,,0.30,meteohub,2013-02-27 18:10:00,
2013-02-27 13:15:00,36.0,34.7,-100.00,ENE,64,2.0,2.0,95,0.02,,,0.30,meteohub,2013-02-27 18:15:00,
2013-02-27 13:20:00,35.8,34.2,-100.00,ENE,72,0.0,2.0,94,0.01,,,0.30,meteohub,2013-02-27 18:20:00,
2013-02-27 13:25:00,35.8,34.5,-100.00,ENE,71,0.0,2.0,95,0.02,,,0.31,meteohub,2013-02-27 18:25:00,
2013-02-27 13:30:00,35.8,34.5,-100.00,ENE,61,0.0,2.0,95,0.02,,,0.31,meteohub,2013-02-27 18:30:00,
2013-02-27 13:35:00,35.8,34.5,-100.00,ENE,59,0.0,1.0,95,0.02,,,0.31,meteohub,2013-02-27 18:35:00,
2013-02-27 13:40:00,36.0,34.7,-100.00,East,91,0.0,1.0,95,0.02,,,0.31,meteohub,2013-02-27 18:40:00,
2013-02-27 13:45:00,36.0,34.7,-100.00,East,88,0.0,1.0,95,0.02,,,0.31,meteohub,2013-02-27 18:45:00,
2013-02-27 13:50:00,36.0,34.7,-100.00,ESE,103,0.0,1.0,95,0.03,,,0.32,meteohub,2013-02-27 18:50:00,
2013-02-27 13:55:00,36.0,34.7,-100.00,East,79,0.0,1.0,95,0.02,,,0.32,meteohub,2013-02-27 18:55:00,
2013-02-27 14:00:00,35.8,34.5,-100.00,East,79,0.0,1.0,95,0.02,,,0.32,meteohub,2013-02-27 19:00:00,
2013-02-27 14:05:00,36.0,34.7,-100.00,East,79,0.0,1.0,95,0.03,,,0.33,meteohub,2013-02-27 19:05:00,
2013-02-27 14:10:00,36.0,34.7,-100.00,East,79,0.0,1.0,95,0.03,,,0.33,meteohub,2013-02-27 19:10:00,
2013-02-27 14:15:00,36.0,34.7,-100.00,ESE,103,0.0,1.0,95,0.03,,,0.33,meteohub,2013-02-27 19:15:00,
2013-02-27 14:21:00,35.8,34.5,-100.00,SE,134,0.0,1.0,95,0.02,,,0.33,meteohub,2013-02-27 19:21:00,
2013-02-27 14:26:00,35.8,34.5,-100.00,ESE,113,0.0,1.0,95,0.02,,,0.33,meteohub,2013-02-27 19:26:00,
2013-02-27 14:31:00,35.8,34.5,-100.00,ESE,115,0.0,1.0,95,0.03,,,0.34,meteohub,2013-02-27 19:31:00,
2013-02-27 14:36:00,35.8,34.5,-100.00,ENE,76,0.0,1.0,95,0.03,,,0.34,meteohub,2013-02-27 19:36:00,
2013-02-27 14:41:00,35.4,34.2,-100.00,ESE,107,0.0,1.0,95,0.03,,,0.34,meteohub,2013-02-27 19:41:00,
2013-02-27 14:46:00,35.4,34.2,-100.00,ESE,110,0.0,2.0,95,0.02,,,0.34,meteohub,2013-02-27 19:46:00,
2013-02-27 14:51:00,35.4,34.2,-100.00,ESE,110,0.0,2.0,95,0.02,,,0.34,meteohub,2013-02-27 19:51:00,
2013-02-27 14:56:00,35.2,34.0,-100.00,East,79,1.0,1.0,95,0.03,,,0.35,meteohub,2013-02-27 19:56:00,
2013-02-27 15:01:00,35.2,34.0,-100.00,East,82,0.0,1.0,95,0.03,,,0.35,meteohub,2013-02-27 20:01:00,
2013-02-27 15:06:00,35.2,34.0,-100.00,East,82,0.0,1.0,95,0.03,,,0.36,meteohub,2013-02-27 20:06:00,
2013-02-27 15:11:00,35.1,33.4,-100.00,East,82,0.0,1.0,94,0.03,,,0.36,meteohub,2013-02-27 20:11:00,
2013-02-27 15:16:00,35.1,33.8,-100.00,East,82,0.0,1.0,95,0.03,,,0.36,meteohub,2013-02-27 20:16:00,
2013-02-27 15:21:00,34.9,33.3,-100.00,East,82,0.0,1.0,94,0.04,,,0.37,meteohub,2013-02-27 20:21:00,
2013-02-27 15:26:00,34.7,33.4,-100.00,East,82,0.0,1.0,95,0.03,,,0.37,meteohub,2013-02-27 20:26:00,
2013-02-27 15:31:00,34.7,33.4,-100.00,East,82,0.0,1.0,95,0.04,,,0.38,meteohub,2013-02-27 20:31:00,
2013-02-27 15:36:00,34.5,33.3,-100.00,East,82,0.0,1.0,95,0.04,,,0.38,meteohub,2013-02-27 20:36:00,
2013-02-27 15:41:00,34.3,32.7,-100.00,East,82,0.0,0.0,94,0.04,,,0.38,meteohub,2013-02-27 20:41:00,
2013-02-27 15:46:00,34.3,33.1,-100.00,East,82,0.0,0.0,95,0.05,,,0.39,meteohub,2013-02-27 20:46:00,
2013-02-27 15:51:00,34.3,33.1,-100.00,East,82,0.0,0.0,95,0.04,,,0.39,meteohub,2013-02-27 20:51:00,
2013-02-27 15:56:00,34.3,33.1,-100.00,East,82,0.0,0.0,95,0.04,,,0.39,meteohub,2013-02-27 20:56:00,
2013-02-27 16:01:00,34.3,33.1,-100.00,East,82,0.0,0.0,95,0.04,,,0.39,meteohub,2013-02-27 21:01:00,
2013-02-27 16:06:00,34.3,33.1,-100.00,East,82,0.0,0.0,95,0.03,,,0.39,meteohub,2013-02-27 21:06:00,
2013-02-27 16:11:00,34.2,32.9,-100.00,East,82,0.0,0.0,95,0.04,,,0.40,meteohub,2013-02-27 21:11:00,
2013-02-27 16:16:00,34.2,32.9,-100.00,East,82,0.0,0.0,95,0.03,,,0.40,meteohub,2013-02-27 21:16:00,
2013-02-27 16:21:00,34.2,32.9,-100.00,East,82,0.0,0.0,95,0.03,,,0.40,meteohub,2013-02-27 21:21:00,
2013-02-27 16:26:00,34.2,32.9,-100.00,East,82,0.0,0.0,95,0.02,,,0.40,meteohub,2013-02-27 21:26:00,
2013-02-27 16:31:00,34.0,32.7,-100.00,East,82,0.0,0.0,95,0.03,,,0.41,meteohub,2013-02-27 21:31:00,
2013-02-27 16:36:00,33.8,32.5,-100.00,East,82,0.0,1.0,95,0.03,,,0.41,meteohub,2013-02-27 21:36:00,
2013-02-27 16:41:00,33.6,32.4,-100.00,East,82,0.0,1.0,95,0.03,,,0.41,meteohub,2013-02-27 21:41:00,
2013-02-27 16:46:00,33.6,32.4,-100.00,East,82,0.0,1.0,95,0.02,,,0.41,meteohub,2013-02-27 21:46:00,
2013-02-27 16:51:00,33.6,32.4,-100.00,East,82,0.0,0.0,95,0.02,,,0.41,meteohub,2013-02-27 21:51:00,
2013-02-27 16:56:00,33.4,32.2,-100.00,East,82,0.0,0.0,95,0.02,,,0.41,meteohub,2013-02-27 21:56:00,
2013-02-27 17:01:00,33.4,32.2,-100.00,East,82,0.0,0.0,95,0.02,,,0.41,meteohub,2013-02-27 22:01:00,
2013-02-27 17:07:00,33.3,32.0,-100.00,East,82,0.0,0.0,95,0.01,,,0.41,meteohub,2013-02-27 22:07:00,
2013-02-27 17:12:00,33.3,32.0,-100.00,East,82,0.0,0.0,95,0.01,,,0.41,meteohub,2013-02-27 22:12:00,
2013-02-27 17:17:00,33.3,32.0,-100.00,East,82,0.0,0.0,95,0.01,,,0.41,meteohub,2013-02-27 22:17:00,
2013-02-27 17:22:00,33.3,32.0,-100.00,East,82,0.0,0.0,95,0.01,,,0.41,meteohub,2013-02-27 22:22:00,
2013-02-27 17:27:00,33.1,31.8,-100.00,East,82,0.0,0.0,95,0.00,,,0.41,meteohub,2013-02-27 22:27:00,
2013-02-27 17:32:00,33.1,31.8,-100.00,East,82,0.0,0.0,95,0.00,,,0.41,meteohub,2013-02-27 22:32:00,
2013-02-27 17:37:00,32.9,31.8,-100.00,East,82,0.0,0.0,96,0.00,,,0.41,meteohub,2013-02-27 22:37:00,
2013-02-27 17:42:00,32.9,31.8,-100.00,East,82,0.0,0.0,96,0.00,,,0.41,meteohub,2013-02-27 22:42:00,
2013-02-27 17:47:00,32.7,31.6,-100.00,East,82,0.0,0.0,96,0.00,,,0.41,meteohub,2013-02-27 22:47:00,
2013-02-27 17:52:00,32.7,31.6,-100.00,East,82,0.0,0.0,96,0.00,,,0.41,meteohub,2013-02-27 22:52:00,
2013-02-27 17:57:00,32.7,31.6,-100.00,East,82,0.0,0.0,96,0.01,,,0.42,meteohub,2013-02-27 22:57:00,
2013-02-27 18:02:00,32.7,31.6,-100.00,East,82,0.0,0.0,96,0.01,,,0.42,meteohub,2013-02-27 23:02:00,
2013-02-27 18:07:00,32.5,31.5,-100.00,East,82,0.0,0.0,96,0.01,,,0.42,meteohub,2013-02-27 23:07:00,
2013-02-27 18:12:00,32.5,31.5,-100.00,East,82,0.0,0.0,96,0.01,,,0.42,meteohub,2013-02-27 23:12:00,
2013-02-27 18:17:00,32.5,31.5,-100.00,East,82,0.0,0.0,96,0.01,,,0.42,meteohub,2013-02-27 23:17:00,
2013-02-27 18:22:00,32.5,31.5,-100.00,East,82,0.0,0.0,96,0.01,,,0.42,meteohub,2013-02-27 23:22:00,
2013-02-27 18:27:00,32.5,31.5,-100.00,East,82,0.0,0.0,96,0.01,,,0.42,meteohub,2013-02-27 23:27:00,
2013-02-27 18:32:00,32.5,31.5,-100.00,East,84,0.0,0.0,96,0.01,,,0.42,meteohub,2013-02-27 23:32:00,
2013-02-27 18:37:00,32.5,31.5,-100.00,East,94,1.0,1.0,96,0.01,,,0.42,meteohub,2013-02-27 23:37:00,
2013-02-27 18:42:00,32.5,31.5,-100.00,South,177,0.0,1.0,96,0.01,,,0.42,meteohub,2013-02-27 23:42:00,
2013-02-27 18:47:00,32.5,31.5,-100.00,South,177,0.0,1.0,96,0.01,,,0.42,meteohub,2013-02-27 23:47:00,
2013-02-27 18:52:00,32.5,31.5,-100.00,South,177,0.0,1.0,96,0.00,,,0.42,meteohub,2013-02-27 23:52:00,
2013-02-27 18:57:00,32.5,31.5,-100.00,South,177,0.0,1.0,96,0.00,,,0.42,meteohub,2013-02-27 23:57:00,
2013-02-27 19:02:00,32.5,31.5,-100.00,South,177,0.0,0.0,96,0.00,,,0.42,meteohub,2013-02-28 00:02:00,
2013-02-27 19:07:00,32.5,31.5,-100.00,South,177,0.0,0.0,96,0.00,,,0.42,meteohub,2013-02-28 00:07:00,
2013-02-27 19:12:00,32.5,31.5,-100.00,South,177,0.0,0.0,96,0.00,,,0.42,meteohub,2013-02-28 00:12:00,
2013-02-27 19:17:00,32.5,31.5,-100.00,South,177,0.0,0.0,96,0.00,,,0.42,meteohub,2013-02-28 00:17:00,
2013-02-27 19:22:00,32.5,31.5,-100.00,SSE,158,0.0,0.0,96,0.00,,,0.42,meteohub,2013-02-28 00:22:00,
2013-02-27 19:27:00,32.5,31.5,-100.00,SSE,159,0.0,0.0,96,0.00,,,0.42,meteohub,2013-02-28 00:27:00,
2013-02-27 19:32:00,32.5,31.5,-100.00,South,191,0.0,0.0,96,0.00,,,0.42,meteohub,2013-02-28 00:32:00,
2013-02-27 19:37:00,32.5,31.5,-100.00,South,169,0.0,0.0,96,0.00,,,0.42,meteohub,2013-02-28 00:37:00,
2013-02-27 19:42:00,32.5,31.5,-100.00,SSE,159,0.0,0.0,96,0.00,,,0.42,meteohub,2013-02-28 00:42:00,
2013-02-27 19:47:00,32.5,31.5,-100.00,SSE,151,0.0,0.0,96,0.00,,,0.42,meteohub,2013-02-28 00:47:00,
2013-02-27 19:52:00,32.5,31.8,-100.00,South,170,0.0,0.0,97,0.00,,,0.42,meteohub,2013-02-28 00:52:00,
2013-02-27 19:57:00,32.5,31.8,-100.00,South,169,0.0,0.0,97,0.00,,,0.42,meteohub,2013-02-28 00:57:00,
2013-02-27 20:02:00,32.5,31.8,-100.00,SSE,152,0.0,0.0,97,0.00,,,0.42,meteohub,2013-02-28 01:02:00,
2013-02-27 20:07:00,32.5,31.8,-100.00,SSE,152,0.0,0.0,97,0.00,,,0.42,meteohub,2013-02-28 01:07:00,
2013-02-27 20:12:00,32.5,31.8,-100.00,SSE,152,0.0,0.0,97,0.00,,,0.42,meteohub,2013-02-28 01:12:00,
2013-02-27 20:17:00,32.5,31.8,-100.00,SSE,152,0.0,0.0,97,0.00,,,0.42,meteohub,2013-02-28 01:17:00,
2013-02-27 20:22:00,32.5,31.8,-100.00,SSE,152,0.0,0.0,97,0.00,,,0.42,meteohub,2013-02-28 01:22:00,
2013-02-27 20:27:00,32.5,31.8,-100.00,SSE,152,0.0,0.0,97,0.00,,,0.42,meteohub,2013-02-28 01:27:00,
2013-02-27 20:32:00,32.5,31.8,-100.00,SSE,152,0.0,0.0,97,0.00,,,0.42,meteohub,2013-02-28 01:32:00,
2013-02-27 20:37:00,32.5,31.8,-100.00,SSE,151,0.0,0.0,97,0.00,,,0.42,meteohub,2013-02-28 01:37:00,
2013-02-27 20:42:00,32.5,31.8,-100.00,SSE,151,0.0,0.0,97,0.00,,,0.42,meteohub,2013-02-28 01:42:00,
2013-02-27 20:48:00,32.5,31.8,-100.00,SSE,151,0.0,0.0,97,0.00,,,0.42,meteohub,2013-02-28 01:48:00,
2013-02-27 20:53:00,32.5,31.8,-100.00,SSE,151,0.0,0.0,97,0.00,,,0.42,meteohub,2013-02-28 01:53:00,
2013-02-27 20:58:00,32.5,31.8,-100.00,SSE,151,0.0,0.0,97,0.00,,,0.42,meteohub,2013-02-28 01:58:00,
2013-02-27 21:03:00,32.5,31.8,-100.00,SSE,151,0.0,0.0,97,0.00,,,0.42,meteohub,2013-02-28 02:03:00,
2013-02-27 21:08:00,32.5,31.8,-100.00,SSE,151,0.0,0.0,97,0.00,,,0.42,meteohub,2013-02-28 02:08:00,
2013-02-27 21:13:00,32.5,31.8,-100.00,SSE,151,0.0,0.0,97,0.00,,,0.42,meteohub,2013-02-28 02:13:00,
2013-02-27 21:18:00,32.5,31.8,-100.00,SSE,151,0.0,0.0,97,0.00,,,0.42,meteohub,2013-02-28 02:18:00,
2013-02-27 21:23:00,32.5,31.8,-100.00,SSE,151,0.0,0.0,97,0.00,,,0.42,meteohub,2013-02-28 02:23:00,
2013-02-27 21:28:00,32.5,31.8,-100.00,SSE,151,0.0,0.0,97,0.00,,,0.42,meteohub,2013-02-28 02:28:00,
2013-02-27 21:33:00,32.5,31.8,-100.00,SSE,151,0.0,0.0,97,0.00,,,0.42,meteohub,2013-02-28 02:33:00,
2013-02-27 21:38:00,32.5,31.8,-100.00,SE,145,0.0,0.0,97,0.00,,,0.42,meteohub,2013-02-28 02:38:00,
2013-02-27 21:43:00,32.7,32.0,-100.00,SE,141,1.0,1.0,97,0.00,,,0.42,meteohub,2013-02-28 02:43:00,
2013-02-27 21:48:00,32.7,32.0,-100.00,SSE,153,0.0,1.0,97,0.00,,,0.42,meteohub,2013-02-28 02:48:00,
2013-02-27 21:53:00,33.1,32.4,-100.00,SE,141,0.0,1.0,97,0.00,,,0.42,meteohub,2013-02-28 02:53:00,
2013-02-27 21:58:00,33.1,32.4,-100.00,SE,144,0.0,1.0,97,0.00,,,0.42,meteohub,2013-02-28 02:58:00,
2013-02-27 22:03:00,33.1,32.4,-100.00,SE,143,0.0,1.0,97,0.00,,,0.42,meteohub,2013-02-28 03:03:00,
2013-02-27 22:08:00,33.1,32.4,-100.00,SE,144,0.0,1.0,97,0.00,,,0.42,meteohub,2013-02-28 03:08:00,
2013-02-27 22:13:00,33.3,32.5,-100.00,SSW,195,1.0,1.0,97,0.00,,,0.42,meteohub,2013-02-28 03:13:00,
2013-02-27 22:18:00,33.3,32.5,-100.00,SW,218,1.0,2.0,97,0.00,,,0.42,meteohub,2013-02-28 03:18:00,
2013-02-27 22:23:00,33.4,32.7,-100.00,SSW,204,1.0,3.0,97,0.00,,,0.42,meteohub,2013-02-28 03:23:00,
2013-02-27 22:28:00,33.4,32.7,-100.00,SSW,195,0.0,4.0,97,0.00,,,0.42,meteohub,2013-02-28 03:28:00,
2013-02-27 22:33:00,33.4,32.7,-100.00,SSW,198,2.0,4.0,97,0.01,,,0.43,meteohub,2013-02-28 03:33:00,
2013-02-27 22:38:00,33.6,32.9,-100.00,South,183,1.0,4.0,97,0.01,,,0.43,meteohub,2013-02-28 03:38:00,
2013-02-27 22:43:00,33.6,32.9,-100.00,SSE,164,1.0,4.0,97,0.01,,,0.43,meteohub,2013-02-28 03:43:00,
2013-02-27 22:48:00,33.6,32.9,-100.00,South,191,1.0,4.0,97,0.01,,,0.43,meteohub,2013-02-28 03:48:00,
2013-02-27 22:53:00,33.6,32.9,-100.00,SSW,192,1.0,3.0,97,0.02,,,0.44,meteohub,2013-02-28 03:53:00,
2013-02-27 22:58:00,33.6,32.9,-100.00,SSE,165,1.0,3.0,97,0.02,,,0.44,meteohub,2013-02-28 03:58:00,
2013-02-27 23:03:00,33.6,32.9,-100.00,SSE,168,3.0,3.0,97,0.02,,,0.45,meteohub,2013-02-28 04:03:00,
2013-02-27 23:08:00,33.6,32.9,-100.00,SSE,166,1.0,3.0,97,0.03,,,0.45,meteohub,2013-02-28 04:08:00,
2013-02-27 23:13:00,33.6,32.9,-100.00,South,172,1.0,3.0,97,0.03,,,0.45,meteohub,2013-02-28 04:13:00,
2013-02-27 23:18:00,33.6,32.5,-100.00,SSE,167,0.0,3.0,96,0.04,,,0.46,meteohub,2013-02-28 04:18:00,
2013-02-27 23:23:00,33.6,32.5,-100.00,SSE,165,0.0,2.0,96,0.04,,,0.46,meteohub,2013-02-28 04:23:00,
2013-02-27 23:28:00,33.6,32.5,-100.00,SSE,162,1.0,2.0,96,0.03,,,0.46,meteohub,2013-02-28 04:28:00,
2013-02-27 23:33:00,33.6,32.5,-100.00,SSE,148,0.0,2.0,96,0.03,,,0.46,meteohub,2013-02-28 04:33:00,
2013-02-27 23:38:00,33.6,32.5,-100.00,SE,145,0.0,2.0,96,0.04,,,0.47,meteohub,2013-02-28 04:38:00,
2013-02-27 23:44:00,33.6,32.5,-100.00,SSE,151,0.0,2.0,96,0.04,,,0.47,meteohub,2013-02-28 04:44:00,
2013-02-27 23:49:00,33.6,32.5,-100.00,SE,144,0.0,2.0,96,0.03,,,0.47,meteohub,2013-02-28 04:49:00,
2013-02-27 23:54:00,33.6,32.5,-100.00,SSE,150,0.0,2.0,96,0.03,,,0.47,meteohub,2013-02-28 04:54:00,
2013-02-27 23:59:00,33.6,32.5,-100.00,SSE,159,0.0,2.0,96,0.04,,,0.48,meteohub,2013-02-28 04:59:00,